THOR ABLESTAR DEB, 158

Orbit data source: Space-Track

THOR ABLESTAR DEB, 158 is space debris in LEO originally from a launch on Thu, 29 Jun 1961 UTC launched from the Air Force Eastern Test Range (AFETR). Debris objects in space refer to the collection of defunct objects orbiting the Earth. Examples of debris include non-operational satellites, rocket bodies, and fragments generated from explosions, collisions, or faulty payload assembly.

Loading next visibility...
Identifier
158, 1961-015AU
Orbit
LEO
Country
Flag of USUS
Related business
Manufacturer
Unknown
Mission
Spacecraft
Bus & Motor
Unknown
Mass
Unknown
Launch date (UTC)
1961-06-29 (64 years ago)
Launch vehicle
Unknown
Launch site
Air Force Eastern Test Range (AFETR)
Object type
Payload
Rocket body
Debris
Shape & HBR
Unknown shape, 0.2 m
Radar Cross Section
Medium (>0.1 m² and <1 m²)

Expand to show TLE details & history
Last TLE update: 3 hours ago

TLE from 3 hours ago
0 THOR ABLESTAR DEB
1   158U 61015AU  25295.16603484  .00000240  00000-0  75676-3 0  9992
2   158  67.0745 317.9430 0604373  28.1757 335.0609 12.66064288975218
Epoch: 2025-10-22T03:59Z
TLE epoch observation values (Epoch: 2025-10-22T03:59:05.410Z)
Latitude
0.00004°
Longitude
-132.67307°
Altitude
979.283 km
Speed
7.559 km/s
True Right ascension
21h 11m 46s
True Declination
0° 00' 00"
Sunlit
Object was in daylight at epoch
Visualization orbit readout
Latitude
Unknown
Longitude
Unknown
Altitude
Unknown
Speed
Unknown
Apparent Right ascension
Unknown
Apparent Declination
Unknown
Sunlit
N/A
Visualization observer readout
Local Sidereal Time
02:28:40
Azimuth
Unknown
Elevation
Unknown
Doppler factor
Unknown
Orbital elements
Apogee altitude
1,866.344 km
Perigee altitude
926.591 km
Semi-major axis
7,774.604 km
Eccentricity
0.06044
Inclination
67.0745°
RAAN
317.943°
Arg. of periapsis
28.1757°
True anomaly
331.9282°
Mean anomaly
335.0609°
Eccentric anomaly
333.51671°
Mean motion
3.16611 °/min
Orbital period
113.7 mins
BSTAR
0.00075676

Documentation

Showing up to 5 results
|